Cozumel, Mexico

12:07 AM on March 30, 2017 (GMT +0000)
Cozumel International

Weather History for MMCZ - September, 2013

Change the Weather History Date:

Sunday, September 22, 2013

  Actual Average Record
Temperature  
Mean Temperature 74 °F -  
Max Temperature 80 °F 88 °F 93 °F (1996)
Min Temperature 69 °F 75 °F 69 °F (2010)
Cooling Degree Days 10    
Growing Degree Days 24 (Base 50)    
Moisture  
Dew Point 72 °F    
Average Humidity 96    
Maximum Humidity 100    
Minimum Humidity 84    
Precipitation  
Precipitation 0.00 in - - ()
Sea Level Pressure  
Sea Level Pressure 29.76 in    
Wind  
Wind Speed 3 mph ()    
Max Wind Speed 9 mph    
Max Gust Speed 32 mph    
Visibility 6.0 miles    
Events Rain    
Averages and records for this station are not official NWS values.
T = Trace of Precipitation, MM = Missing Value Source: Averaged Metar Reports

Daily Weather History Graph

Daily Weather History Graph

Search for Another Location

Airport or City:

Trip Planner

Search our weather history database for the weather conditions in past years. The results will help you decide how hot, cold, wet, or windy it might be!

Date:

Astronomy

Sep. 22, 2013 Rise Set
Actual Time 6:36 AM CDT 6:43 PM CDT
Civil Twilight 6:14 AM CDT 7:05 PM CDT
Nautical Twilight 5:48 AM CDT 7:31 PM CDT
Astronomical Twilight 5:23 AM CDT 7:57 PM CDT
Moon 9:05 PM CDT (9/22) 9:26 AM CDT (9/22)
Length of Visible Light 12h 51m
Length of Day
12h 07m
Waning Gibbous, 88% of the Moon is Illuminated
Sep 22
Waning Gibbous
Sep 26
Last Quarter
Oct 4
New
Oct 11
First Quarter
Oct 18
Full

Hourly Weather History & Observations

Time (CDT) Temp. Heat Index Dew Point Humidity Pressure Visibility Wind Dir Wind Speed Gust Speed Precip Events Conditions
12:40 AM 75.2 °F - 73.4 °F 94% 29.76 in 7.0 mi SE 4.6 mph - N/A   Scattered Clouds
1:40 AM 73.4 °F - 71.6 °F 94% 29.76 in 7.0 mi SE 3.5 mph - N/A   Partly Cloudy
2:40 AM 71.6 °F - 69.8 °F 94% 29.74 in 7.0 mi ESE 3.5 mph - N/A   Partly Cloudy
3:40 AM 71.6 °F - 69.8 °F 94% 29.76 in 7.0 mi ESE 3.5 mph - N/A   Scattered Clouds
4:40 AM 71.6 °F - 69.8 °F 94% 29.73 in 7.0 mi Calm Calm - N/A   Scattered Clouds
5:40 AM 71.6 °F - 69.8 °F 94% 29.74 in 7.0 mi Calm Calm - N/A   Scattered Clouds
6:40 AM 71.6 °F - 69.8 °F 94% 29.73 in 7.0 mi Calm Calm - N/A   Scattered Clouds
7:40 AM 71.6 °F - 69.8 °F 94% 29.76 in 7.0 mi SE 4.6 mph - N/A   Mostly Cloudy
8:43 AM 77.0 °F - 75.2 °F 94% 29.77 in 7.0 mi SSE 4.6 mph - N/A   Scattered Clouds
9:47 AM 80.6 °F 86.2 °F 75.2 °F 84% 29.80 in 7.0 mi SSE 5.8 mph - N/A   Scattered Clouds
10:52 AM 77.0 °F - 75.2 °F 94% 29.77 in 7.0 mi SE 5.8 mph - N/A   Mostly Cloudy
11:44 AM 78.8 °F - 75.2 °F 89% 29.77 in 7.0 mi SE 4.6 mph - N/A   Mostly Cloudy
12:12 PM 78.8 °F - 75.2 °F 89% 29.76 in 3.0 mi SSE 6.9 mph - N/A Rain Heavy Rain
12:50 PM 73.4 °F - 73.4 °F 100% 29.75 in 2.0 mi South 9.2 mph 32.2 mph N/A Rain Heavy Rain
1:44 PM 69.8 °F - 69.8 °F 100% 29.76 in 4.0 mi SW 5.8 mph - N/A Rain Rain
2:46 PM 69.8 °F - 69.8 °F 100% 29.74 in 2.0 mi South 6.9 mph - N/A Rain Rain
3:45 PM 69.8 °F - 69.8 °F 100% 29.75 in 4.0 mi SE 3.5 mph - N/A Rain Light Rain
4:43 PM 69.8 °F - 69.8 °F 100% 29.72 in 6.0 mi Calm Calm - N/A   Overcast
5:40 PM 71.6 °F - 71.6 °F 100% 29.74 in 6.0 mi Calm Calm - N/A   Overcast
6:41 PM 71.6 °F - 71.6 °F 100% 29.74 in 6.0 mi SE 3.5 mph - N/A   Overcast
7:43 PM 71.6 °F - 71.6 °F 100% 29.75 in 6.0 mi SSE 3.5 mph - N/A   Overcast
8:41 PM 71.6 °F - 71.6 °F 100% 29.77 in 6.0 mi Calm Calm - N/A   Overcast
9:50 PM 71.6 °F - 71.6 °F 100% 29.82 in 7.0 mi Calm Calm - N/A   Mostly Cloudy
10:50 PM 71.6 °F - 71.6 °F 100% 29.80 in 7.0 mi Calm Calm - N/A   Mostly Cloudy
11:44 PM 73.4 °F - 73.4 °F 100% 29.81 in 7.0 mi Calm Calm - N/A   Mostly Cloudy